Angleton, TX

3:30 AM CDT on March 27, 2017 (GMT -0500)
Brazoria County

Weather History for KLBX - October, 2012

Change the Weather History Date:

Thursday, October 18, 2012

  Actual Average Record
Temperature  
Mean Temperature 74 °F -  
Max Temperature 82 °F 78 °F 91 °F (2016)
Min Temperature 66 °F 60 °F 46 °F (2001)
Cooling Degree Days 8    
Growing Degree Days 24 (Base 50)    
Moisture  
Dew Point 66 °F    
Average Humidity 77    
Maximum Humidity 100    
Minimum Humidity 39    
Precipitation  
Precipitation 0.00 in - - ()
Sea Level Pressure  
Sea Level Pressure 29.81 in    
Wind  
Wind Speed 6 mph (NE)    
Max Wind Speed 17 mph    
Max Gust Speed 26 mph    
Visibility 6 miles    
Events Fog    
Averages and records for this station are not official NWS values.
T = Trace of Precipitation, MM = Missing Value Source: NWS Daily Summary

Daily Weather History Graph

Daily Weather History Graph

Search for Another Location

Airport or City:

Trip Planner

Search our weather history database for the weather conditions in past years. The results will help you decide how hot, cold, wet, or windy it might be!

Date:

Astronomy

Oct. 18, 2012 Rise Set
Actual Time 7:25 AM CDT 6:48 PM CDT
Civil Twilight 7:01 AM CDT 7:12 PM CDT
Nautical Twilight 6:33 AM CDT 7:39 PM CDT
Astronomical Twilight 6:06 AM CDT 8:07 PM CDT
Moon 10:52 AM CDT (10/18) 9:39 PM CDT (10/18)
Length of Visible Light 12h 10m
Length of Day
11h 22m
Waxing Crescent, 14% of the Moon is Illuminated
Oct 18
Waxing Crescent
Oct 21
First Quarter
Oct 29
Full
Nov 6
Last Quarter
Nov 13
New

Hourly Weather History & Observations

Time (CDT) Temp. Heat Index Dew Point Humidity Pressure Visibility Wind Dir Wind Speed Gust Speed Precip Events Conditions
12:53 AM 75.0 °F - 73.9 °F 96% 29.72 in 6.0 mi SSW 4.6 mph - N/A   Clear
1:53 AM 75.0 °F - 73.9 °F 96% 29.73 in 4.0 mi SSW 3.5 mph - N/A   Clear
2:25 AM 75.2 °F - 73.4 °F 94% 29.73 in 3.0 mi SSW 3.5 mph - N/A   Mostly Cloudy
2:46 AM 73.4 °F - 73.4 °F 100% 29.72 in 1.8 mi SSW 3.5 mph - N/A   Overcast
2:53 AM 73.9 °F - 73.9 °F 100% 29.72 in 1.0 mi SSW 3.5 mph - N/A   Mist
3:33 AM 73.4 °F - 73.4 °F 100% 29.72 in 0.5 mi SSW 3.5 mph - N/A Fog Fog
3:53 AM 75.0 °F - 73.9 °F 96% 29.72 in 1.5 mi Calm Calm - N/A   Overcast
4:21 AM 75.2 °F - 73.4 °F 94% 29.73 in 1.2 mi North 8.1 mph - N/A   Overcast
4:25 AM 75.2 °F - 75.2 °F 100% 29.73 in 2.0 mi NNW 5.8 mph - N/A   Overcast
4:34 AM 75.2 °F - 75.2 °F 100% 29.74 in 4.0 mi NNW 5.8 mph - N/A   Overcast
4:53 AM 75.9 °F - 75.0 °F 97% 29.75 in 4.0 mi North 4.6 mph - N/A   Overcast
5:14 AM 75.2 °F - 75.2 °F 100% 29.75 in 3.0 mi North 3.5 mph - N/A   Overcast
5:41 AM 75.2 °F - 75.2 °F 100% 29.77 in 3.0 mi Calm Calm - N/A   Overcast
5:51 AM 75.2 °F - 75.2 °F 100% 29.77 in 3.0 mi Calm Calm - N/A   Overcast
5:53 AM 75.9 °F - 75.0 °F 97% 29.77 in 4.0 mi Calm Calm - N/A   Overcast
6:53 AM 75.9 °F - 75.0 °F 97% 29.79 in 5.0 mi Calm Calm - N/A   Overcast
7:31 AM 75.2 °F - 73.4 °F 94% 29.79 in 5.0 mi NE 4.6 mph - N/A   Overcast
7:45 AM 75.2 °F - 73.4 °F 94% 29.80 in 4.0 mi NE 5.8 mph - N/A   Overcast
7:53 AM 75.9 °F - 75.0 °F 97% 29.80 in 4.0 mi NNE 5.8 mph - N/A   Overcast
8:03 AM 75.2 °F - 73.4 °F 94% 29.80 in 4.0 mi NNE 10.4 mph - N/A   Overcast
8:35 AM 75.2 °F - 69.8 °F 83% 29.82 in 10.0 mi NE 16.1 mph 24.2 mph N/A   Overcast
8:53 AM 73.9 °F - 66.9 °F 79% 29.83 in 10.0 mi NE 13.8 mph 20.7 mph N/A   Mostly Cloudy
9:39 AM 73.4 °F - 60.8 °F 65% 29.85 in 10.0 mi ENE 17.3 mph 24.2 mph N/A   Overcast
9:53 AM 75.0 °F - 57.9 °F 55% 29.86 in 10.0 mi NE 17.3 mph 26.5 mph N/A   Overcast
10:53 AM 77.0 °F - 55.9 °F 48% 29.88 in 10.0 mi ENE 17.3 mph 26.5 mph N/A   Unknown
11:53 AM 78.1 °F - 55.9 °F 46% 29.89 in 10.0 mi NE 16.1 mph - N/A   Overcast
12:53 PM 79.0 °F - 55.9 °F 45% 29.88 in 10.0 mi NE 13.8 mph - N/A   Overcast
1:53 PM 79.0 °F - 55.9 °F 45% 29.86 in 10.0 mi NE 13.8 mph - N/A   Overcast
2:53 PM 81.0 °F 81.0 °F 57.0 °F 44% 29.84 in 10.0 mi NE 12.7 mph 20.7 mph N/A   Mostly Cloudy
3:53 PM 79.0 °F - 55.9 °F 45% 29.84 in 10.0 mi NE 13.8 mph - N/A   Overcast
4:53 PM 77.0 °F - 53.1 °F 43% 29.86 in 10.0 mi NNE 13.8 mph - N/A   Overcast
5:53 PM 77.0 °F - 50.0 °F 39% 29.86 in 10.0 mi NE 6.9 mph - N/A   Overcast
6:53 PM 75.0 °F - 52.0 °F 44% 29.87 in 10.0 mi NE 5.8 mph - N/A   Mostly Cloudy
7:53 PM 73.9 °F - 54.0 °F 50% 29.89 in 10.0 mi NE 5.8 mph - N/A   Overcast
8:53 PM 73.0 °F - 55.0 °F 53% 29.91 in 10.0 mi NNE 6.9 mph - N/A   Overcast
9:53 PM 69.1 °F - 55.0 °F 61% 29.92 in 10.0 mi NNE 5.8 mph - N/A   Partly Cloudy
10:53 PM 66.0 °F - 55.9 °F 70% 29.93 in 10.0 mi North 5.8 mph - N/A   Scattered Clouds
11:53 PM 69.1 °F - 54.0 °F 58% 29.95 in 10.0 mi North 8.1 mph - N/A   Overcast